Regional Weather Roundup
Issued by NWS

Home | Current Version | Previous Version | Text Only | Print | Product List | Glossary Off
Versions: 1 2 3 4 5 6 7 8 9 10 11 12 13 14 15 16 17 18 19 20 21 22 23 24 25 26 27 28 29 30 31 32 33 34 35 36 37 38 39 40 41 42 43 44 45 46 47 48 49 50

000
ASUS45 KABQ 061210
RWRNM
WEATHER ROUNDUP FOR NEW MEXICO
NATIONAL WEATHER SERVICE ALBUQUERQUE NM
500 AM MST FRI MAR 06 2015

NOTE: "FAIR" MEANS FEW OR NO CLOUDS BELOW 12,000 FEET AGL WITH NO
       SIGNIFICANT WEATHER OR OBSTRUCTIONS TO VISION.

      THIS PRODUCT IS RELEASED AS TWO VERSIONS.  ONE VERSION NEAR
      THE TOP OF THE HOUR CONTAINING PRELIMINARY DATA FROM ALBUQUERQUE
      AND OTHER STATIONS.  A FINAL VERSION WITH ADDITIONAL DATA IS
      ISSUED ABOUT 10 MINUTES AFTER THE HOUR.

NMZ501-503-504-510>518-061300-
NORTHWEST PLATEAU/NORTHCENTRAL MOUNTAINS

CITY           SKY/WX    TMP DP  RH WIND       PRES   REMARKS
FARMINGTON     CLEAR     22  17  81 E6        30.37R WCI  14
6HR MIN TEMP:  21; 6HR MAX TEMP:  32;

LOS ALAMOS     PTCLDY    28  13  51 N10       30.36R WCI  19
SANTA FE       PTCLDY    26  13  57 N8        30.33S WCI  18
6HR MIN TEMP:  25; 6HR MAX TEMP:  32;

TAOS           PTCLDY    18  10  73 N3        30.38S
ANGEL FIRE     FAIR      -9 -12  85 CALM      30.38R

$$
NMZ402-403-502-505>509-061300-
WESTCENTRAL MOUNTAINS/SOUTHWEST MOUNTAINS

CITY           SKY/WX    TMP DP  RH WIND       PRES   REMARKS
GALLUP         CLEAR     20  14  77 CALM      30.38R
6HR MIN TEMP:  19; 6HR MAX TEMP:  27;

GRANTS         CLEAR     15  11  83 NW8       30.40R WCI   4
SILVER CITY    CLEAR     23  16  74 N8        30.33S WCI  14

$$
NMZ407-409-411-412-061300-
SOUTHERN DESERTS

CITY           SKY/WX    TMP DP  RH WIND       PRES   REMARKS
LORDSBURG      FAIR      30  19  64 S9        30.31S WCI  22
DEMING         CLEAR     28  21  75 E9        30.34R WCI  19
6HR MIN TEMP:  27; 6HR MAX TEMP:  34;

LAS CRUCES     CLEAR     26  21  83 N5        30.34S WCI  20
HOLLOMAN AFB   PTCLDY    25  20  80 N5        30.35S WCI  20
ALAMOGORDO     PTCLDY    25  19  80 N5        30.37R WCI  19
T OR C         CLEAR     28  15  58 NW5       30.34R WCI  23
6HR MIN TEMP:  27; 6HR MAX TEMP:  37;


$$
NMZ519>523-061300-
CENTRAL VALLEYS/CENTRAL HIGHLANDS

CITY           SKY/WX    TMP DP  RH WIND       PRES   REMARKS
ALBUQUERQUE    PTCLDY    31  14  49 CALM      30.37R
6HR MIN TEMP:  28; 6HR MAX TEMP:  39;

MORIARTY ARPT  FAIR      16  11  78 NE5       30.35S WCI   9
6HR MIN TEMP:  14; 6HR MAX TEMP:  29;

CLINES CORNERS PTCLDY    26  13  57 W15       30.30R WCI  14
6HR MIN TEMP:  25; 6HR MAX TEMP:  30;

BELEN          FAIR      24  13  62 NW5       30.36S WCI  18
6HR MIN TEMP:  23; 6HR MAX TEMP:  33;

SOCORRO          N/A     25  17  70 CALM      30.36S
6HR MIN TEMP:  23; 6HR MAX TEMP:  33;


$$
NMZ524>526-539-540-061300-
SOUTHCENTRAL MOUNTAINS

CITY           SKY/WX    TMP DP  RH WIND       PRES   REMARKS
RUIDOSO        CLEAR     32   1  27 NW6       30.35R WCI  26

$$
NMZ527>531-061300-
NORTHEAST HIGHLANDS/NORTHEAST PLAINS

CITY           SKY/WX    TMP DP  RH WIND       PRES   REMARKS
LAS VEGAS      CLEAR     22  12  65 NE6       30.30S WCI  14
6HR MIN TEMP:  22; 6HR MAX TEMP:  33;

RATON          CLEAR     18  15  88 N6        30.30R WCI  10
6HR MIN TEMP:  18; 6HR MAX TEMP:  25;

CLAYTON        CLEAR     34  18  52 NW12      30.27R WCI  25
6HR MIN TEMP:  28; 6HR MAX TEMP:  36;


$$
NMZ532>537-061300-
EASTCENTRAL PLAINS

CITY           SKY/WX    TMP DP  RH WIND       PRES   REMARKS
TUCUMCARI      CLEAR     23  20  88 W6        30.32R WCI  16
6HR MIN TEMP:  23; 6HR MAX TEMP:  31;

CANNON AFB     PTCLDY    24  22  91 W9        30.34S WCI  14
6HR MIN TEMP:  22; 6HR MAX TEMP:  25;

CLOVIS AIRPORT PTCLDY    19  16  86 W5        30.34S WCI  13

$$
NMZ028-029-538-061300-
SOUTHEAST PLAINS

CITY           SKY/WX    TMP DP  RH WIND       PRES   REMARKS
ROSWELL        FOG       25  23  92 S7        30.37R VSB 1/2 WCI  17
6HR MIN TEMP:  22; 6HR MAX TEMP:  27;

ARTESIA        FOG       25  25 100 CALM      30.39R VSB<1/4
CARLSBAD       PTCLDY    22  18  85 CALM      30.38R
6HR MIN TEMP:  21; 6HR MAX TEMP:  29;

HOBBS          PTCLDY    23  23 100 CALM      30.39R


$$


USA.gov is the U.S. government's official web portal to all federal, state and local government web resources and services.